TimeMST,TemperatureF,Dew PointF,Humidity,Sea Level PressureIn,VisibilityMPH,Wind Direction,Wind SpeedMPH,Gust SpeedMPH,PrecipitationIn,Events,Conditions,WindDirDegrees,DateUTC
12:53 AM,28.9,10.9,47,30.06,10.0,Calm,Calm,-,N/A,,Clear,0,2013-01-14 07:53:00
1:53 AM,28.0,10.9,49,30.06,10.0,SSE,5.8,-,N/A,,Clear,150,2013-01-14 08:53:00
2:53 AM,27.0,12.0,53,30.07,10.0,SSE,5.8,-,N/A,,Clear,150,2013-01-14 09:53:00
3:53 AM,25.0,12.0,58,30.08,10.0,SSE,5.8,-,N/A,,Clear,160,2013-01-14 10:53:00
4:53 AM,24.1,10.0,55,30.08,10.0,SSE,4.6,-,N/A,,Clear,160,2013-01-14 11:53:00
5:53 AM,21.9,10.0,60,30.10,10.0,SE,4.6,-,N/A,,Clear,140,2013-01-14 12:53:00
6:53 AM,21.9,10.0,60,30.11,10.0,SE,8.1,-,N/A,,Clear,140,2013-01-14 13:53:00
7:53 AM,23.0,10.0,58,30.14,10.0,South,5.8,-,N/A,,Clear,170,2013-01-14 14:53:00
8:53 AM,26.1,10.0,51,30.16,10.0,South,3.5,-,N/A,,Clear,170,2013-01-14 15:53:00
9:53 AM,34.0,8.1,34,30.16,10.0,WSW,3.5,-,N/A,,Clear,240,2013-01-14 16:53:00
10:53 AM,37.0,5.0,26,30.15,10.0,WSW,5.8,-,N/A,,Clear,250,2013-01-14 17:53:00
11:53 AM,39.0,3.0,22,30.12,10.0,Variable,6.9,-,N/A,,Unknown,0,2013-01-14 18:53:00
12:53 PM,41.0,3.0,21,30.09,10.0,WSW,4.6,-,N/A,,Unknown,250,2013-01-14 19:53:00
2:53 PM,42.8,3.2,19,30.08,10.0,WSW,8.1,-,N/A,,Clear,250,2013-01-14 21:53:00
3:53 PM,42.1,3.9,21,30.10,10.0,NW,10.4,-,N/A,,Partly Cloudy,310,2013-01-14 22:53:00
4:53 PM,39.9,-0.9,18,30.11,10.0,WNW,11.5,20.7,N/A,,Clear,300,2013-01-14 23:53:00
5:53 PM,36.0,1.9,24,30.14,10.0,NNW,16.1,-,N/A,,Clear,330,2013-01-15 00:53:00
6:53 PM,34.0,1.0,25,30.16,10.0,NW,8.1,-,N/A,,Clear,310,2013-01-15 01:53:00
7:53 PM,33.1,1.0,26,30.18,10.0,WNW,8.1,-,N/A,,Clear,300,2013-01-15 02:53:00
8:53 PM,28.0,-0.0,30,30.19,10.0,WSW,4.6,-,N/A,,Clear,250,2013-01-15 03:53:00
9:53 PM,26.1,-0.0,32,30.20,10.0,WSW,6.9,-,N/A,,Clear,250,2013-01-15 04:53:00
10:53 PM,26.1,1.0,34,30.21,10.0,West,8.1,-,N/A,,Clear,270,2013-01-15 05:53:00
11:53 PM,26.1,1.0,34,30.21,10.0,Calm,Calm,-,N/A,,Clear,0,2013-01-15 06:53:00